Theta_e
313 316 315 315 316 316 317 317 318 318 319 321 323 324 325 325 324 325 325 332 334 338 342 341 340 337 328 331 336 337 334 328 325 321 327 326 326 326 328 328 329 328 326
311 314 313 312 311 311 311 313 316 317 319 321 324 325 326 327 326 325 324 327 334 333 333 336 337 338 335 334 332 334 333 329 323 320 324 324 324 325 325 325 328 332 328
312 312 313 313 312 312 312 312 312 315 318 319 322 324 322 322 322 324 327 327 326 329 338 338 338 338 338 337 338 336 333 330 325 323 322 322 322 323 321 322 322 323 326
312 312 311 312 313 313 312 310 312 316 316 316 317 319 320 321 322 322 323 324 328 326 331 339 338 338 338 341 338 336 330 328 324 322 320 320 319 320 320 318 318 320 322
308 311 311 312 311 312 311 311 313 312 313 315 317 318 317 318 320 319 319 321 325 328 327 335 340 339 333 335 339 332 328 325 323 320 319 320 317 317 318 318 316 317 319
307 306 307 307 309 310 310 310 309 309 310 312 312 312 311 314 308 308 311 319 322 322 325 332 342 332 330 321 321 322 327 326 321 319 319 317 316 317 318 317 315 314 313
307 308 310 309 310 310 310 309 308 308 309 309 309 309 308 310 306 304 306 314 319 321 323 327 337 341 328 332 318 318 317 315 320 326 322 318 317 320 319 316 316 315 314
307 308 309 309 309 310 310 309 310 310 309 309 309 308 309 309 303 302 303 310 313 320 323 326 331 333 332 331 328 327 327 326 324 325 323 321 321 322 323 320 319 317 321
305 306 308 309 308 309 309 308 308 308 308 308 308 307 306 306 301 300 302 306 309 313 322 328 334 328 313 308 330 325 321 317 306 304 307 304 302 304 313 320 318 318 316
305 307 308 308 309 308 308 308 309 308 307 307 307 307 305 306 300 299 300 305 306 309 316 326 313 326 306 307 329 325 320 318 315 315 315 310 309 310 305 318 320 319 312
302 304 305 307 307 307 307 307 309 308 307 306 305 306 306 305 305 298 298 305 307 310 317 326 331 304 304 304 313 326 321 317 312 316 315 316 316 317 319 317 318 317 314
302 303 304 305 306 306 305 305 305 307 308 305 305 304 304 304 301 299 297 298 303 309 313 324 327 305 303 303 312 303 302 311 318 315 314 313 315 316 316 318 319 318 318
303 303 303 304 304 304 303 303 304 305 306 305 305 303 303 304 304 300 299 298 298 304 314 317 308 302 301 304 303 300 307 320 316 313 312 313 315 317 317 318 318 319 319
300 300 301 301 302 304 305 306 305 305 305 305 304 303 303 303 302 304 307 311 302 305 309 312 309 308 309 308 308 314 321 319 316 313 312 312 314 316 316 318 316 317 316
300 301 301 302 302 303 303 305 305 305 306 306 306 306 303 302 303 302 304 315 318 315 313 314 317 318 316 316 317 317 318 317 315 314 313 314 316 315 313 317 315 315 313
301 302 303 304 305 306 305 305 301 301 300 297 299 304 306 300 298 298 298 303 301 302 319 319 318 317 317 317 317 314 314 314 316 316 316 319 318 317 316 318 318 317 313
304 305 307 306 304 304 304 304 303 299 298 297 295 296 297 299 296 296 298 297 300 305 320 319 317 316 315 315 315 315 314 315 316 316 319 320 318 317 314 316 316 316 316
307 304 311 304 305 304 303 303 302 301 300 300 295 298 295 296 296 296 295 303 313 316 320 318 317 316 316 316 316 316 316 316 315 314 314 315 319 316 315 314 314 314 314
305 309 314 311 310 304 304 303 303 303 302 302 304 297 297 294 295 297 301 323 321 319 319 317 318 317 316 317 318 319 318 316 315 313 313 314 318 317 314 313 313 301 305
305 303 309 317 317 314 311 309 307 308 307 308 308 307 304 301 307 316 323 321 320 319 318 318 317 316 317 318 319 320 316 314 314 313 313 315 316 311 311 314 311 307 311
304 316 302 321 320 320 319 317 317 317 315 312 309 309 304 320 320 320 320 319 319 318 318 318 317 317 318 319 319 318 317 318 314 313 317 318 313 310 311 313 315 311 310
309 321 321 319 319 318 318 319 318 317 316 315 313 305 298 321 319 317 316 317 318 318 319 318 319 318 320 318 317 318 319 315 314 314 314 314 313 314 314 312 315 315 311
315 321 318 317 318 310 318 319 318 318 319 319 317 314 313 312 310 309 308 309 311 312 313 316 315 313 315 317 319 320 319 316 314 315 315 317 315 314 315 314 316 315 314
323 320 319 319 318 318 318 315 312 306 311 310 309 307 306 304 302 302 302 303 303 303 304 306 308 309 310 310 308 312 318 318 318 318 318 317 316 312 313 316 315 311 308
322 321 319 318 317 316 313 311 310 307 306 304 302 301 300 298 297 297 297 298 298 298 297 299 301 302 302 304 305 306 296 293 307 300 315 312 310 310 310 310 309 308 306
320 319 317 315 313 312 309 306 304 302 300 299 298 296 295 294 294 294 294 293 292 292 292 293 294 295 296 296 295 291 290 292 297 294 308 307 306 305 305 303 302 300 298
Wind_Speed
12 12 11 11 11 7 7 7 7 6 7 7 7 6 6 7 7 7 8 10 9 11 11 11 11 7 5 7 7 5 7 6 7 3 1 1 1 2 3 2 3 3 3
14 13 14 13 9 8 8 9 9 8 7 7 7 7 6 7 7 8 9 8 9 10 11 11 10 6 12 13 8 9 7 8 5 6 2 2 3 3 3 4 3 3 3
14 14 13 12 11 12 12 10 8 8 8 7 7 6 6 6 6 6 7 9 8 9 11 8 11 8 13 11 11 9 8 6 5 4 4 2 2 3 2 1 2 3 1
14 14 14 15 14 14 14 12 12 9 7 7 7 7 6 6 7 8 9 10 11 9 12 12 15 11 18 15 9 13 8 7 5 3 4 3 2 2 2 3 3 3 3
7 12 16 16 15 14 13 13 11 9 9 8 7 6 5 5 5 7 9 10 11 10 11 14 14 17 25 14 9 9 7 6 5 4 3 2 3 3 5 3 3 3 3
2 5 6 4 6 10 14 14 10 9 8 8 8 8 7 5 7 9 9 10 11 10 11 12 14 16 19 17 16 14 13 10 6 5 4 3 4 4 4 4 4 2 3
7 7 7 7 7 9 12 12 12 12 10 9 9 9 8 8 12 10 11 9 8 11 10 11 10 9 10 9 9 11 9 11 10 10 7 6 6 7 6 5 5 4 4
9 10 10 9 11 12 14 15 14 13 15 14 13 12 9 7 11 13 12 9 9 10 11 12 14 8 10 10 9 6 6 7 5 5 7 7 5 6 7 5 6 4 1
11 12 14 15 16 15 15 16 15 13 14 16 14 12 10 9 12 11 7 6 9 11 11 13 14 10 12 14 14 10 5 3 6 8 10 10 6 4 6 5 3 5 2
12 13 14 15 17 17 15 14 15 15 16 13 17 14 13 11 12 13 8 5 9 9 11 14 14 14 17 19 13 14 10 7 7 4 3 5 4 3 8 2 6 6 3
16 18 20 17 15 15 12 11 12 15 15 15 15 13 14 13 11 13 11 6 7 9 9 10 7 10 19 14 12 13 10 10 6 6 4 3 3 3 3 2 5 4 3
16 16 15 16 14 15 19 19 19 19 17 18 16 12 9 9 12 9 11 12 13 10 11 10 7 16 16 12 11 12 18 12 6 5 4 3 3 3 3 4 4 3 3
13 15 17 19 19 19 19 19 17 20 19 16 15 12 9 7 5 10 12 15 16 12 10 12 11 16 13 8 11 17 15 8 7 4 4 3 3 4 4 4 1 3 3
20 21 19 19 20 21 17 16 17 16 18 16 15 13 10 6 5 4 6 9 11 11 12 10 12 12 8 9 9 10 7 7 7 5 4 3 2 2 3 3 3 3 2
19 21 21 19 23 22 22 20 20 22 17 16 15 14 11 11 9 10 10 9 9 10 11 10 11 10 9 7 6 6 6 6 5 4 4 4 3 3 3 2 2 2 2
20 19 18 16 15 15 15 19 34 29 31 16 15 14 10 10 12 15 18 18 15 21 11 11 11 11 11 9 9 6 4 5 5 4 4 4 5 4 3 2 1 2 3
18 20 16 10 4 6 10 17 16 21 23 20 15 16 17 11 15 16 15 20 22 13 11 10 11 10 9 9 8 7 5 4 5 4 5 6 5 4 4 3 2 2 1
17 21 9 4 2 2 5 10 12 14 14 12 12 14 15 19 14 16 19 21 11 7 9 11 11 9 9 8 7 6 5 5 4 4 4 4 6 5 3 3 3 3 2
14 9 5 5 6 4 7 11 11 12 11 10 9 8 10 13 15 24 27 13 13 10 9 8 9 9 8 7 7 7 7 6 6 5 4 4 4 4 3 3 3 3 4
15 14 7 5 6 9 8 9 10 10 10 9 9 8 8 9 12 16 12 11 10 10 9 10 8 7 7 8 6 6 6 5 5 4 4 4 4 4 4 4 4 3 3
12 4 7 7 7 9 10 11 11 10 11 10 10 12 19 13 13 12 10 9 10 9 9 9 8 8 6 6 7 7 6 6 5 5 4 4 5 4 4 4 3 4 4
10 5 7 7 8 10 12 13 13 13 13 12 11 9 13 12 11 11 10 9 8 8 7 7 7 6 5 5 7 7 6 6 5 5 5 5 4 4 4 3 3 3 3
5 8 9 10 10 12 13 14 14 13 12 13 13 12 11 11 11 11 10 9 9 9 7 7 7 6 4 4 4 6 7 6 5 5 5 5 4 4 4 3 4 3 3
5 10 11 10 11 12 12 12 12 14 14 13 13 12 11 11 11 12 10 9 10 9 7 7 7 9 7 6 5 5 5 5 5 5 7 6 5 5 5 5 5 6 4
9 11 11 11 12 12 12 13 13 13 12 12 12 11 11 11 11 10 9 9 10 10 10 8 7 10 10 10 8 8 8 9 8 7 7 8 8 8 7 6 7 6 6
11 12 10 11 12 12 12 12 12 12 12 11 11 11 11 11 10 10 9 10 10 10 11 9 10 12 11 9 10 10 10 11 10 10 8 8 9 7 7 9 10 7 9
Wind_Direction
202 202 196 201 202 193 193 215 216 220 228 231 238 245 244 251 242 237 252 262 228 236 234 223 228 203 178 217 233 220 187 164 214 285 196 113 73 165 164 173 184 212 223
209 202 201 205 200 192 196 202 207 211 222 226 226 224 227 238 235 232 241 245 246 239 238 241 250 249 253 248 232 229 200 173 153 198 172 161 171 192 178 173 192 219 218
213 207 211 211 199 202 213 212 194 202 210 218 232 230 237 244 255 257 250 262 260 250 245 231 249 227 250 244 233 228 213 175 178 175 146 167 165 148 154 202 197 237 210
208 208 209 211 210 208 209 205 202 192 190 209 214 222 236 252 270 274 286 294 286 258 254 244 239 234 255 240 215 223 193 161 146 147 147 161 131 167 136 163 240 232 220
224 209 212 213 208 208 211 215 206 189 200 192 199 205 215 243 258 280 280 283 288 278 252 247 241 224 237 226 201 206 173 149 146 163 135 146 153 166 186 184 199 212 240
244 240 246 252 241 213 213 216 211 210 202 192 198 199 206 225 253 275 283 283 286 279 283 269 236 216 223 215 210 200 175 159 144 138 160 178 195 183 160 176 161 160 240
260 242 234 236 219 213 220 215 213 212 216 211 211 202 209 204 210 245 277 285 286 280 272 276 267 222 220 208 202 193 173 157 166 157 169 182 169 193 162 171 187 176 205
254 254 254 233 223 214 210 218 219 209 211 214 222 222 208 214 208 223 251 272 283 283 279 278 268 219 205 173 160 139 184 154 170 169 172 173 183 183 180 177 182 154 50
258 260 257 252 250 239 220 217 221 215 212 213 216 213 205 223 204 208 235 276 286 282 293 277 262 189 189 174 144 152 161 111 61 85 100 108 113 159 163 129 146 155 186
255 253 257 256 252 245 234 222 224 220 216 213 217 212 198 211 209 211 197 244 276 278 277 278 216 192 181 184 157 157 162 174 145 126 105 109 130 76 181 147 155 183 133
269 266 261 246 236 238 237 240 234 223 222 216 217 207 204 191 218 213 197 225 254 270 268 282 220 206 177 188 155 160 170 148 139 132 132 119 120 155 178 184 158 138 158
269 262 259 253 245 243 240 241 243 243 227 222 215 212 202 186 211 202 215 223 240 248 259 279 223 183 173 172 157 147 135 124 137 132 134 147 181 184 189 171 156 179 197
263 262 258 253 248 244 243 242 241 238 235 218 218 216 206 200 198 200 231 247 236 237 245 250 185 167 144 163 162 134 134 139 134 134 154 181 185 190 130 104 133 221 216
265 259 255 252 250 247 238 229 230 231 229 217 210 209 199 203 195 200 239 248 238 223 235 187 166 141 149 130 121 137 135 144 150 149 151 181 168 136 109 129 155 170 174
266 262 257 246 240 242 229 226 220 219 218 213 208 206 198 210 215 214 229 240 228 184 152 149 142 144 143 139 130 121 128 136 137 140 152 171 153 119 100 151 142 153 158
263 264 258 257 248 239 233 222 215 209 207 192 186 200 210 216 201 215 227 214 175 163 147 150 144 156 152 145 144 139 132 148 152 155 161 157 139 120 143 138 105 143 153
264 269 272 260 232 265 257 208 190 192 189 183 158 168 193 204 215 236 201 157 161 167 144 161 153 149 142 143 147 152 142 153 141 164 154 146 133 115 150 162 164 130 116
295 286 287 173 208 339 54 93 133 156 166 177 182 187 195 211 225 185 167 152 155 129 150 156 144 140 141 145 145 142 139 138 155 158 144 153 135 147 157 171 168 155 134
299 294 255 184 170 139 102 104 117 133 146 162 179 190 210 184 168 170 164 154 155 144 146 138 134 136 135 134 145 147 150 163 159 147 148 132 138 143 147 164 146 145 134
318 313 168 184 144 155 144 132 136 147 149 158 172 175 144 132 166 173 146 139 142 138 139 129 129 127 135 146 145 150 151 151 146 142 133 139 137 143 167 159 162 148 183
313 326 58 99 115 107 110 117 119 120 123 125 129 137 148 142 124 121 132 131 130 129 130 125 126 131 131 142 150 148 142 142 134 129 137 131 139 160 162 166 158 155 165
300 40 63 78 77 90 97 97 94 100 105 105 104 97 105 109 109 108 107 105 102 102 109 110 107 118 132 141 139 137 133 124 131 140 144 149 158 160 157 150 148 148 146
304 81 77 87 82 82 79 84 85 93 91 97 95 90 93 93 94 90 86 79 79 77 69 84 96 89 88 94 107 122 127 148 159 146 151 153 158 155 148 140 137 125 104
113 103 98 85 80 80 74 75 76 74 82 83 85 82 82 82 80 78 76 78 80 73 69 76 80 89 83 74 70 77 103 117 129 147 136 130 124 119 107 92 89 89 89
100 100 101 103 99 89 91 85 83 81 82 83 84 82 81 80 78 76 75 78 78 78 66 62 63 65 64 74 81 81 81 74 86 87 89 91 96 92 90 93 98 85 80
91 93 91 90 92 93 90 89 86 84 83 82 81 79 82 81 79 79 77 75 76 70 69 61 59 65 67 65 70 75 74 76 80 82 95 95 91 84 86 85 82 82 75